STARLINK-34470, 64703

Orbit data source: Space-Track

STARLINK-34470, 64703 is a payload satellite owned by SpaceX/Seattle (US) in LEO that was launched on Sat, 28 Jun 2025 UTC via an FALCON 9 launch vehicle from the Air Force Western Test Range (AFWTR). Payload-class satellites include a variety of spacecraft equipped with specific instruments for various scientific and technological missions. These include communications satellites like Starlink; space stations such as the ISS; scientific satellites like the Hubble; Earth observation satellites from companies like Planet Labs, Umbra, and HawkEye 360; GPS; miniature CubeSats for education and research; and military/defense satellites.

Loading next visibility...
Identifier
64703, 2025-142H
Orbit
LEO
Last TLE update
11 hours ago
Origin
Manufacturer
SpaceX/Seattle
Mission
Operational spacecraft
Bus & Motor
STARLINK V2MO, Unknown motor
Mass
575 kg wet, ~530 kg dry
Launch date (UTC)
2025-06-28 (3 weeks ago)
Launch vehicle
FALCON 9
Launch site
Air Force Western Test Range (AFWTR)
Object type
Payload
Rocket body
Debris
Shape & HBR
Unknown
Radar Cross Section
Large (>1 m²)

Expand to show TLE details & history

TLE from 11 hours ago
0 STARLINK-34470
1 64703U 25142H   25199.25002315 -.01864801  00000-0 -31335-1 0  9994
2 64703  70.0011 195.5691 0004089 278.8088 101.2174 15.54946716  4063
Epoch: 2025-07-18T06:00Z
TLE epoch observation values (Epoch: 2025-07-18T06:00:02Z)
Latitude
18.82276°
Longitude
176.34306°
Altitude
404.809 km
Speed
7.669 km/s
True Right ascension
13h 30m 37s
True Declination
18° 42' 45"
Sunlit
Object was in daylight at epoch
Visualization orbit readout
Latitude
-40.71332°
Longitude
149.90498°
Altitude
420.547 km
Speed
7.659 km/s
Apparent Right ascension
14h 26m 34s
Apparent Declination
-48° 29' 58"
Sunlit
Object is in daylight
Visualization observer readout
Local Sidereal Time
05:18:55
Azimuth
120.244° SE
Elevation
-58.402°
Doppler factor
1
Orbital elements
Apogee altitude
402.976 km
Perigee altitude
397.432 km
Semi-major axis
6,778.341 km
Eccentricity
0.00041
Inclination
70.0011°
RAAN
195.5691°
Arg. of periapsis
278.8088°
True anomaly
101.26336°
Mean anomaly
101.2174°
Eccentric anomaly
101.24038°
Mean motion
3.88918 °/min
Orbital period
92.56 mins
BSTAR
-0.031335
Loading maneuver chart data...
Loading SW <> Apogee altitude chart data...
Loading historical data...
Loading historical data...
Loading historical data...
Loading historical data...
Loading historical data...
Loading historical data...
Loading historical data...
|